• In Deutschland
  • Länderverzeichnis
  • Für 7 Tage
  • Wassertemperatur
  • Satellitenkarten
  • Wetterkarte
  • Widgets
  • user-avatar
    Anmelden

    Stündliche Wetter Salzburg

    Heute, 25 April, Dienstag

    Zeit Temperatur Niederschläge Wind Luftdruck Luftfeuchtigkeit
    00:00 -2°C° 0 mm 3 m/S 621 mmHg 95%
    01:00 -1°C° 0 mm 3 m/S 621 mmHg 93%
    02:00 -1°C° 0 mm 3 m/S 620 mmHg 93%
    03:00 -2°C° 0 mm 3 m/S 620 mmHg 93%
    04:00 -2°C° 0 mm 3 m/S 620 mmHg 93%
    05:00 -1°C° 0 mm 3 m/S 620 mmHg 92%
    06:00 +1°C° 0 mm 2 m/S 620 mmHg 91%
    07:00 +1°C° 0 mm 2 m/S 620 mmHg 90%
    08:00 +2°C° 0 mm 2 m/S 620 mmHg 87%
    09:00 +4°C° 0 mm 2 m/S 620 mmHg 84%
    10:00 +5°C° 0 mm 2 m/S 621 mmHg 82%
    11:00 +5°C° 0,1 mm 2 m/S 620 mmHg 82%
    12:00 +5°C° 0,1 mm 2 m/S 620 mmHg 82%
    13:00 +6°C° 0,1 mm 2 m/S 620 mmHg 81%
    14:00 +6°C° 0,5 mm 2 m/S 620 mmHg 84%
    15:00 +5°C° 0,5 mm 2 m/S 619 mmHg 86%
    16:00 +5°C° 0,5 mm 2 m/S 619 mmHg 88%
    17:00 +4°C° 0,5 mm 2 m/S 619 mmHg 91%
    18:00 +3°C° 0,5 mm 2 m/S 618 mmHg 95%
    19:00 +2°C° 0,5 mm 2 m/S 618 mmHg 98%
    20:00 +2°C° 0,6 mm 2 m/S 618 mmHg 98%
    21:00 +1°C° 0,6 mm 2 m/S 618 mmHg 98%
    22:00 +1°C° 0,6 mm 2 m/S 619 mmHg 98%
    23:00 +1°C° 0,2 mm 2 m/S 618 mmHg 98%

    Morgen, 26 April, Mittwoch

    Zeit Temperatur Niederschläge Wind Luftdruck Luftfeuchtigkeit
    00:00 +1°C° 0,2 mm 2 m/S 618 mmHg 98%
    01:00 -1°C° 0,2 mm 2 m/S 618 mmHg 98%
    02:00 -1°C° 0,1 mm 2 m/S 618 mmHg 98%
    03:00 -1°C° 0,1 mm 2 m/S 618 mmHg 98%
    04:00 -1°C° 0,1 mm 2 m/S 617 mmHg 98%
    05:00 -1°C° 0,2 mm 2 m/S 618 mmHg 98%
    06:00 -1°C° 0,2 mm 2 m/S 618 mmHg 97%
    07:00 -1°C° 0,2 mm 2 m/S 618 mmHg 97%
    08:00 -1°C° 0,6 mm 2 m/S 618 mmHg 97%
    09:00 +1°C° 0,6 mm 2 m/S 618 mmHg 96%
    10:00 0°C° 0,6 mm 3 m/S 618 mmHg 95%
    11:00 +1°C° 1,2 mm 2 m/S 618 mmHg 95%
    12:00 +1°C° 1,2 mm 2 m/S 618 mmHg 95%
    13:00 -1°C° 1,2 mm 2 m/S 619 mmHg 95%
    14:00 -1°C° 1,3 mm 2 m/S 619 mmHg 96%
    15:00 -1°C° 1,3 mm 2 m/S 619 mmHg 96%
    16:00 -1°C° 1,3 mm 2 m/S 619 mmHg 97%
    17:00 0°C° 1,6 mm 1 m/S 619 mmHg 97%
    18:00 0°C° 1,6 mm 1 m/S 619 mmHg 98%
    19:00 -1°C° 1,6 mm 1 m/S 619 mmHg 98%
    20:00 -1°C° 1,7 mm 1 m/S 619 mmHg 98%
    21:00 -2°C° 1,7 mm 1 m/S 619 mmHg 98%
    22:00 -2°C° 1,7 mm 1 m/S 619 mmHg 98%
    23:00 -2°C° 1,4 mm 1 m/S 618 mmHg 98%

    übermorgen, 27 April, Donnerstag

    Zeit Temperatur Niederschläge Wind Luftdruck Luftfeuchtigkeit
    00:00 -2°C° 1,4 mm 1 m/S 618 mmHg 98%
    01:00 -3°C° 1,4 mm 0 m/S 618 mmHg 98%
    02:00 -3°C° 0,9 mm 0 m/S 618 mmHg 98%
    03:00 -3°C° 0,9 mm 0 m/S 618 mmHg 98%
    04:00 -2°C° 0,9 mm 1 m/S 618 mmHg 98%
    05:00 -2°C° 0,7 mm 1 m/S 618 mmHg 98%
    06:00 -1°C° 0,7 mm 1 m/S 619 mmHg 98%
    07:00 -1°C° 0,7 mm 1 m/S 619 mmHg 97%
    08:00 0°C° 1,1 mm 1 m/S 619 mmHg 97%
    09:00 0°C° 1,1 mm 1 m/S 619 mmHg 97%
    10:00 0°C° 1,1 mm 1 m/S 619 mmHg 97%
    11:00 -1°C° 1,3 mm 2 m/S 619 mmHg 97%
    12:00 -1°C° 1,3 mm 2 m/S 619 mmHg 97%
    13:00 -1°C° 1,3 mm 2 m/S 619 mmHg 97%
    14:00 -1°C° 1,4 mm 2 m/S 619 mmHg 97%
    15:00 -2°C° 1,4 mm 2 m/S 619 mmHg 97%
    16:00 0°C° 1,4 mm 1 m/S 619 mmHg 97%
    17:00 0°C° 1,7 mm 1 m/S 618 mmHg 98%
    18:00 -1°C° 1,7 mm 1 m/S 618 mmHg 98%
    19:00 -1°C° 1,7 mm 1 m/S 618 mmHg 98%
    20:00 -2°C° 2,1 mm 1 m/S 618 mmHg 98%
    21:00 -2°C° 2,1 mm 1 m/S 618 mmHg 98%
    22:00 -2°C° 2,1 mm 1 m/S 618 mmHg 98%
    23:00 -2°C° 1,1 mm 1 m/S 618 mmHg 98%

    28 April, Freitag

    Zeit Temperatur Niederschläge Wind Luftdruck Luftfeuchtigkeit
    00:00 -2°C° 1,1 mm 1 m/S 617 mmHg 98%
    01:00 -2°C° 1,1 mm 1 m/S 617 mmHg 98%
    02:00 -2°C° 0,7 mm 1 m/S 617 mmHg 98%
    03:00 -3°C° 0,7 mm 1 m/S 617 mmHg 99%
    04:00 -3°C° 0,7 mm 1 m/S 616 mmHg 99%
    05:00 -3°C° 1,2 mm 1 m/S 616 mmHg 98%
    06:00 -2°C° 1,2 mm 1 m/S 616 mmHg 98%
    07:00 -2°C° 1,2 mm 1 m/S 617 mmHg 98%
    08:00 -2°C° 1 mm 1 m/S 617 mmHg 98%
    09:00 -1°C° 1 mm 1 m/S 617 mmHg 98%
    10:00 -1°C° 1 mm 1 m/S 618 mmHg 98%
    11:00 0°C° 0,9 mm 1 m/S 618 mmHg 98%
    12:00 -2°C° 0,9 mm 2 m/S 618 mmHg 98%
    13:00 -2°C° 0,9 mm 2 m/S 619 mmHg 98%
    14:00 -2°C° 0,7 mm 2 m/S 619 mmHg 97%
    15:00 -2°C° 0,7 mm 2 m/S 619 mmHg 97%
    16:00 -2°C° 0,7 mm 2 m/S 620 mmHg 97%
    17:00 -2°C° 0,6 mm 2 m/S 620 mmHg 97%
    18:00 -3°C° 0,6 mm 2 m/S 620 mmHg 97%
    19:00 -3°C° 0,6 mm 2 m/S 621 mmHg 98%
    20:00 -4°C° 0,5 mm 2 m/S 621 mmHg 98%
    21:00 -4°C° 0,5 mm 2 m/S 621 mmHg 98%
    22:00 -5°C° 0,5 mm 2 m/S 622 mmHg 98%
    23:00 -5°C° 0,4 mm 2 m/S 622 mmHg 98%

    29 April, Samstag

    Zeit Temperatur Niederschläge Wind Luftdruck Luftfeuchtigkeit
    00:00 -3°C° 0,4 mm 1 m/S 622 mmHg 98%
    01:00 -3°C° 0,4 mm 1 m/S 622 mmHg 98%
    02:00 -3°C° 0,3 mm 1 m/S 622 mmHg 97%
    03:00 -4°C° 0,3 mm 1 m/S 622 mmHg 97%
    04:00 -4°C° 0,3 mm 1 m/S 622 mmHg 97%
    05:00 -3°C° 0,2 mm 1 m/S 623 mmHg 97%
    06:00 -3°C° 0,2 mm 1 m/S 623 mmHg 96%
    07:00 -2°C° 0,2 mm 1 m/S 623 mmHg 96%
    08:00 -1°C° 0 mm 1 m/S 624 mmHg 95%
    09:00 0°C° 0 mm 1 m/S 624 mmHg 94%
    10:00 0°C° 0 mm 0 m/S 624 mmHg 93%
    11:00 +1°C° 0,1 mm 1 m/S 624 mmHg 91%
    12:00 +2°C° 0,1 mm 1 m/S 624 mmHg 90%
    13:00 +2°C° 0,1 mm 1 m/S 624 mmHg 89%
    14:00 +3°C° 0 mm 1 m/S 624 mmHg 89%
    15:00 +3°C° 0 mm 1 m/S 623 mmHg 88%
    16:00 +3°C° 0 mm 1 m/S 623 mmHg 88%
    17:00 +2°C° 0 mm 1 m/S 623 mmHg 91%
    18:00 0°C° 0 mm 1 m/S 623 mmHg 94%
    19:00 -1°C° 0 mm 1 m/S 622 mmHg 96%
    20:00 -2°C° 0 mm 1 m/S 622 mmHg 96%
    21:00 -4°C° 0 mm 2 m/S 622 mmHg 96%
    22:00 -5°C° 0 mm 2 m/S 622 mmHg 96%
    23:00 -5°C° 0 mm 2 m/S 622 mmHg 95%

    30 April, Sonntag

    Zeit Temperatur Niederschläge Wind Luftdruck Luftfeuchtigkeit
    00:00 -6°C° 0 mm 2 m/S 622 mmHg 95%
    01:00 -6°C° 0 mm 2 m/S 622 mmHg 94%
    02:00 -6°C° 0 mm 2 m/S 621 mmHg 94%
    03:00 -6°C° 0 mm 2 m/S 621 mmHg 94%
    04:00 -7°C° 0 mm 2 m/S 621 mmHg 94%
    05:00 -5°C° 0 mm 2 m/S 621 mmHg 93%
    06:00 -4°C° 0 mm 2 m/S 622 mmHg 92%
    07:00 -2°C° 0 mm 2 m/S 622 mmHg 91%
    08:00 -1°C° 0 mm 2 m/S 622 mmHg 89%
    09:00 +1°C° 0 mm 2 m/S 622 mmHg 88%
    10:00 +3°C° 0 mm 2 m/S 622 mmHg 87%
    11:00 +3°C° 0 mm 2 m/S 622 mmHg 86%
    12:00 +4°C° 0 mm 2 m/S 622 mmHg 85%
    13:00 +4°C° 0 mm 2 m/S 622 mmHg 84%
    14:00 +5°C° 0 mm 2 m/S 622 mmHg 84%
    15:00 +5°C° 0 mm 2 m/S 622 mmHg 84%
    16:00 +5°C° 0 mm 2 m/S 621 mmHg 84%
    17:00 +4°C° 0 mm 2 m/S 621 mmHg 87%
    18:00 +2°C° 0 mm 2 m/S 621 mmHg 91%
    19:00 +1°C° 0 mm 2 m/S 620 mmHg 94%
    20:00 -1°C° 0 mm 2 m/S 620 mmHg 94%
    21:00 -1°C° 0 mm 2 m/S 620 mmHg 93%
    22:00 -2°C° 0 mm 2 m/S 620 mmHg 93%
    23:00 -3°C° 0 mm 2 m/S 620 mmHg 92%
    Mehr zeigen